Вернуться в каталог

GLOBALSTAR M038

АктивенСвязьLEO
NORAD 25624·PAYLOAD·🇺🇸 United States

Запущен Feb 9, 1999 с Baikonur Cosmodrome

Loading…

Ближайшие Пролёты (ближайшие 24 часа)

TLE

СвежийSource: Space-Track

Эпоха: Sep 14, 2026, 20:53 UTC

1 25624U 99004D   26257.87076939 -.00000076  00000-0  15775-3 0  9994
2 25624  51.9960 202.1039 0001557 299.3966  93.8328 12.32550041258449

Отслеживайте GLOBALSTAR M038 в реальном времени с AllMySat

Download on the App Store